QAEM 100 R/B (61071 NORAD) Tracking and Keplerian Element Data

This shows tracking and keplerian element data for the satellite.

Feedback or suggestion? Click here.




ElementValue
Catalog61071
NameQAEM 100 R/B
Epoch Orbit430
Epoch Day286.86303227
Epoch Year2024
RAAN246.7062
Inclination64.0948
Eccentricity0.0006027
Argument of Perigee263.0933
Mean Anonmoly96.9494
Mean Motion15.05354724
Decay Rate8.894E-05
L11 61071U 24165A 24286.86303227 .00008894 00000+0 62971-3 0 9992
L22 61071 64.0948 246.7062 0006027 263.0933 96.9494 15.05354724 4300



Live tracking and technical data element details for QAEM 100 R/B (NORAD 61071). QAEM 100 R/B can be tracked NOW for your location showing map with azimuth and elevation plus other details from your city location.







IsCatalogInMostPopularTable: catalog: 61071, numindb: 24
Update: records affected: 1



GetName: 61071 QAEM 100 R/B

Hit Count: updated at: Fri, 06 Dec 2024 10:51:24 GMT